Regional Weather Roundup
Issued by NWS

Home | Current Version | Previous Version | Text Only | Print | Product List | Glossary Off
Versions: 1 2 3 4 5 6 7 8 9 10 11 12 13 14 15 16 17 18 19 20 21 22 23 24 25 26 27 28 29 30 31 32 33 34 35 36 37 38 39 40 41 42 43 44 45 46 47 48 49 50

000
ASUS43 KIND 312209
RWRIN

WEATHER ROUNDUP FOR INDIANA
NATIONAL WEATHER SERVICE INDIANAPOLIS IN
600 PM EDT MON AUG 31 2015

NOTE: "FAIR" INDICATES FEW OR NO CLOUDS BELOW 12,000 FEET WITH NO
SIGNIFICANT WEATHER AND/OR OBSTRUCTIONS TO VISIBILITY.

* - STATION DOES NOT REPORT WEATHER SUCH AS PRECIPITATION OR FOG.

+ - STATION NOT QUALITY CONTROLLED BY THE NATIONAL WEATHER SERVICE.
    USE DATA WITH CAUTION...ESPECIALLY DEWPOINT AND RELATIVE
    HUMIDITY OBSERVATIONS.

INZ001>003-010>013-019-020-312300-
NORTHWEST INDIANA

CITY           SKY/WX    TMP DP  RH WIND       PRES   REMARKS
GARY /AIRPORT/ MOSUNNY   82  66  57 CALM      30.02F
KNOX *+        MOSUNNY   86  64  48 W6        30.02S
LA PORTE +     SUNNY     85  71  60 W3        30.04S
MICHIGAN CITY+ SUNNY     81  68  65 N3        30.03F
MONTICELLO +   SUNNY     85  70  61 SW7       30.02S
RENSSELAER +   MOSUNNY   86  70  58 SW9       30.03S
VALPARAISO     SUNNY     85  68  56 SW6       30.03F

$$

LMZ046-743>745-312300-
SOUTHERN LAKE MICHIGAN

STATION/POSITION TIME  TEMP    WIND        PRES    WAVE
                       AIR SEA DIR/SP/G            HT
                 (UTC) (F)     (DEG/KT/KT) (MB)    (FT)
BURNS HARBOR     2100   75      70/  9/ 10 1017.3F
MICHIGAN CITY    2100   73      30/  7/  8   N/A
5NW MICH CITY    2200   74 73   80/  6/  6   N/A     0

$$

INZ004-005-014>016-021>024-312300-
NORTH CENTRAL INDIANA

CITY           SKY/WX    TMP DP  RH WIND       PRES   REMARKS
ELKHART        SUNNY     84  66  54 W7        30.04F
GOSHEN         SUNNY     84  68  58 W5        30.04S
LOGANSPORT +   MOSUNNY   84  61  45 SW7       30.05S
PERU/GRISSOM   MOSUNNY   87  67  52 SW10      30.04S
ROCHESTER +    SUNNY     88  68  51 SW5       30.04S
SOUTH BEND     SUNNY     83  68  60 W6        30.04F
WARSAW +       MOSUNNY   86  68  54 CALM      30.04S

$$

INZ006>009-017-018-025>027-312300-
NORTHEAST INDIANA

CITY           SKY/WX    TMP DP  RH WIND       PRES   REMARKS
ANGOLA *+      SUNNY     88  70  55 CALM      30.05S
AUBURN +       SUNNY     82  68  61 CALM      30.05S
FORT WAYNE     MOSUNNY   85  67  54 SW7       30.05S
HUNTINGTON +   MOSUNNY   85  64  49 W5        30.04S

$$

INZ028-029-035-036-043>045-051>053-312300-
WEST CENTRAL INDIANA

CITY           SKY/WX    TMP DP  RH WIND       PRES   REMARKS
CRAWFORDSVL +  MOSUNNY   82  62  50 SW9       30.05S
GREENCASTLE +  SUNNY     82  64  54 S3        30.06F
LAFAYETTE      MOSUNNY   86  67  52 SW7       30.03S
TERRE HAUTE    SUNNY     86  66  51 SW10      30.05S

$$

INZ030>032-037>040-046>048-054>057-064-065-312300-
CENTRAL INDIANA

CITY           SKY/WX    TMP DP  RH WIND       PRES   REMARKS
FRANKFORT +    SUNNY     85  69  57 S8        30.07S
GREENWOOD *+   MOSUNNY   84  64  51 SW3       30.07S
INDIANAPOLIS   MOSUNNY   84  66  54 S12       30.05F
-EAGLE CREEK   SUNNY     84  67  56 SW7       30.05S
KOKOMO *+      PTSUNNY   88  66  48 W7        30.04S
MARION +       MOSUNNY   83  58  42 CALM      30.05F
MT COMFORT *+  MOSUNNY   86  55  35 SW9       30.06S
SHELBYVILLE    MOSUNNY   87  67  51 W8        30.05F
ZIONSVILLE +   SUNNY     86  65  49 SW7       30.06S

$$

INZ033-034-041-042-049-050-058-059-312300-
EAST CENTRAL INDIANA

CITY           SKY/WX    TMP DP  RH WIND       PRES   REMARKS
MUNCIE         MOSUNNY   83  67  58 W8        30.05F

$$

INZ060-061-067>069-081>083-085>088-312300-
SOUTHWEST INDIANA

CITY           SKY/WX    TMP DP  RH WIND       PRES   REMARKS
EVANSVILLE     SUNNY     86  67  52 S7        30.06S
HUNTINGBURG *+ SUNNY     86  66  51 S8        30.06F
WASHINGTON +   MOSUNNY   85  62  45 SW5       30.05S

$$

INZ062-063-066-070>080-084-089>092-312300-
SOUTH CENTRAL AND SOUTHEAST INDIANA

CITY           SKY/WX    TMP DP  RH WIND       PRES   REMARKS
BLOOMINGTON    MOSUNNY   84  67  56 W6        30.07F
MADISON *+     MOSUNNY   82  64  54 S3        30.09S
NORTH VERNON + MOSUNNY   86  63  45 CALM      30.08S
SEYMOUR +      MOSUNNY   90  66  45 CALM      30.06S

$$




USA.gov is the U.S. government's official web portal to all federal, state and local government web resources and services.